STARLINK-31676 (59900 NORAD) Tracking and Keplerian Element Data

This shows tracking and keplerian element data for the satellite.

Feedback or suggestion? Click here.




ElementValue
Catalog59900
NameSTARLINK-31676
Epoch Orbit277
Epoch Day159.91667824
Epoch Year2024
RAAN175.8488
Inclination43.0031
Eccentricity0.0001581
Argument of Perigee261.7878
Mean Anonmoly2.3126
Mean Motion15.80485106
Decay Rate-0.01029248
L11 59900U 24100R 24159.91667824 -.01029248 00000+0 -59116-2 0 9995
L22 59900 43.0031 175.8488 0001581 261.7878 2.3126 15.80485106 2779



Live tracking and technical data element details for STARLINK-31676 (NORAD 59900). STARLINK-31676 can be tracked NOW for your location showing map with azimuth and elevation plus other details from your city location.







IsCatalogInMostPopularTable: catalog: 59900, numindb: 5
Update: records affected: 1



GetName: 59900 STARLINK-31676

Hit Count: updated at: Tue, 16 Jul 2024 02:02:30 GMT